Mercredi 24 juillet 2019   -   semaine 30                    on fête: Christine                    soleil  (-2 mn) lever du soleil 06:18:00 coucher du soleil 21:27:00                    lune Lune gibbeuse décroissante
Sélection

Sélection d'un SYNOP

   Synop:       

  Période à consulter:

Actuelle
Archive     

Relevé

Dernier relevé du SYNOP pour la période choisie

Conditions météo à la station de Vichy/Charmeil (4610N 00324E)    altitude 251m

Date du relevé24/07/2019 à 06:00
Visibilité20km
Vent4 km/h SSO
Température22.5 C
Température mini / 12h0.0 C
Humidité65.9 %
Point de rosée15.8 C
Pression absolue986.7 hPa
Pression relative1015.4 hPa
Variation pression0.7 hPa en baisse ou stationnaire, puis en hausse plus rapide

24h

Historique de la période choisie

Certaines stations ne diffusent pas en continu, d'où l'absence possible de données à certaines heures. Le tableau ci-dessous récapitule l'historique des relevés de la station de Vichy/Charmeil.

Date - Heure Base des nuages Visibilité Nébulosité Vent - Secteur Température Humidité Point rosée Pression / Géopotentiel Précipitations Temps
24/07 06:00 20km 4 km/h SSO 22.5 C 65.9 % 15.8 C 1015.4 hPa
24/07 05:00 20km 4 km/h S 22.9 C 63.9 % 15.7 C 1014.9 hPa
24/07 04:00 20km 4 km/h SSO 22.4 C 64.2 % 15.3 C 1014.8 hPa
24/07 03:00 20km 4 km/h SSO 23.1 C 63.2 % 15.7 C 1014.7 hPa
24/07 02:00 20km 4 km/h OSO 23.3 C 61.2 % 15.4 C 1014.8 hPa 0 mm/6h
24/07 01:00 20km 2 km/h SO 23.3 C 60.0 % 15.1 C 1014.7 hPa
24/07 00:00 20km 2 km/h O 24.5 C 55.2 % 14.9 C 1014.5 hPa
23/07 23:00 5000m 0 km/h N 27.1 C 46.1 % 14.5 C 1013.8 hPa
23/07 22:00 2000m 2 km/h SSO 28.7 C 43.1 % 14.9 C 1013.3 hPa
23/07 21:00 19km 2 km/h NNO 31.9 C 31.1 % 12.7 C 1013.0 hPa
23/07 20:00 1200m 0 km/h N 34.6 C 24.1 % 11.1 C 1013.0 hPa 0 mm/12h
23/07 19:00 20km 6 km/h NNE 38.3 C 14.0 % 6.1 C 1012.5 hPa
23/07 18:00 18km 2 km/h N 39.7 C 14.0 % 7.2 C 1012.7 hPa
23/07 17:00 19km 6 km/h E 39.9 C 14.1 % 7.4 C 1013.2 hPa
23/07 16:00 20km 4 km/h NNO 39.3 C 14.0 % 6.9 C 1013.8 hPa
23/07 15:00 20km 2 km/h ONO 38.7 C 18.0 % 10.1 C 1014.3 hPa
23/07 14:00 19km 4 km/h SSO 37.7 C 23.0 % 13.0 C 1014.8 hPa 0 mm/6h
23/07 13:00 19km 4 km/h NE 35.9 C 29.1 % 15.1 C 1015.7 hPa
23/07 12:00 20km 4 km/h ENE 33.7 C 34.2 % 15.7 C 1016.3 hPa
23/07 11:00 20km 2 km/h S 32.2 C 36.0 % 15.2 C 1017.0 hPa
23/07 10:00 19km 6 km/h SSE 28.7 C 45.9 % 15.9 C 1017.5 hPa
23/07 09:00 20km 4 km/h S 25.8 C 53.1 % 15.5 C 1018.0 hPa
23/07 08:00 19km 4 km/h S 22.3 C 68.0 % 16.1 C 1018.5 hPa 0 mm/12h
23/07 07:00 20km 0 km/h N 17.5 C 83.1 % 14.6 C 1019.2 hPa
23/07 06:00 20km 0 km/h N 17.1 C 82.0 % 14.0 C 1019.3 hPa

Source: ogimet